LogoCoinalyze
    Ad-Free Version Inicio Mercados Tasas de Financiamiento
    Datos de futuros
    • Datos agregados (Monedas)
    • Gráficos individuales
    • Gráficos globales
    Alertas
    TA
    Bitcoin Ethereum BNB Ripple Tron ZCash Dogecoin Monero UNUS SED LEO Chainlink Cardano Stellar Lumens Bitcoin Cash Litecoin Hedera Cronos Polkadot Ethereum Classic Algorand Cosmos Quant VeChain Dash Bitcoin SV BitTorrent Terra Decred Tezos Iota The Graph THETA Decentraland NEO Chiliz MultiversX Basic Attention Token Golem Horizen Qtum 0x DigiByte Beam RIF Token FTX Token Holo FUNToken Ontology Zilliqa Nano aelf Ravencoin Enjin Coin Siacoin Mask Network Verge Status WINk Waves IoTeX iExec RLC Power Ledger Steem Kyber Network Crystal Lisk Ark WOO Network IOST Ardor WAX Icon Storj Wanchain Loopring Bitcoin Diamond Augur AdEx Bitcoin Gold OmiseGO NEM MonaCoin BitShares Ren V Systems Komodo Nuls Mithril SOLVE Maker Aion EOS Nebulas HedgeTrade Bread Fetch.ai TomoChain Polygon Fantom Waltonchain GXChain Bytom Metaverse ETP MaidSafeCoin QASH
    Ordenar por:
    Más
    • API
    • Patrones de velas
    • Donar
    • Contacto
    • Mapa del Sitio
    • Privacy Policy
    • Disclaimer
    • Theme:
    Español
    • English
    • Français
    • Русский
    • Deutsch
    • Türkçe
    • Nederlands
    • Português (BR)
    • 한국어
    • 简体中文
    • 日本語
     
    Iniciar sesión / Registrar
    Markets/ Pepe/ PEPE a USDT/ PEPEUSDT WOO X
    Trades
    WL
    Chat
    Estad.
    Noticias
    ⦷
    AAA
    0.00000365 4603809.00000000 16:10:37
    0.00000378 246214099.00000000 16:10:24
    0.00000396 791569168.00000000 16:10:13
    0.00000396 35956085.00000000 16:06:25
    0.00000397 501260195.00000000 16:06:25
    0.00000397 207304037.00000000 15:55:40
    0.00000398 213669379.00000000 15:55:40
    0.00000398 484571827.00000000 15:39:34
    0.00000399 627536360.00000000 15:39:34
    0.00000399 157676673.00000000 15:24:45
    0.00000400 554618292.00000000 15:24:27
    0.00000401 212967581.00000000 15:24:27
    0.00000402 239800995.00000000 15:24:27
    0.00000403 192304606.00000000 15:24:27
    0.00000403 40697875.00000000 03:29:32
    0.00000404 62634130.00000000 03:29:10
    0.00000404 89924668.00000000 02:44:59
    0.00000404 50659024.00000000 20:07:57
    0.00000450 31552710.00000000 04:39:39
    0.00000450 18611721.00000000 04:39:39
    0.00000450 2000000.00000000 04:39:38
    0.00000342 327518991.00000000 07:19:39
    0.00000342 439367498.00000000 07:19:39
    0.00000342 695321637.00000000 07:18:59
    0.00000272 255925180.00000000 17:14:34
    0.00000272 851102941.00000000 17:13:35
    0.00000273 3663004.00000000 17:13:19
    0.00000273 13917504.00000000 03:30:10
    0.00000297 696598.00000000 10:10:29
    0.00000297 2693603.00000000 10:09:59
    0.00000297 2693603.00000000 10:08:58
    0.00000297 3367003.00000000 10:08:28
    0.00000297 3703704.00000000 10:06:56
    0.00000297 3030303.00000000 10:05:55
    0.00000297 3703704.00000000 10:04:23
    0.00000297 3703704.00000000 10:03:22
    0.00000298 13925860.00000000 09:06:54
    0.00000268 1618837703.00000000 13:36:48
    0.00000268 1675610710.00000000 13:36:48
    0.00000268 3731343.00000000 13:36:35
    0.00000268 2985075.00000000 13:36:05
    0.00000268 3358209.00000000 13:35:34
    0.00000268 4104478.00000000 13:34:33
    0.00000268 4104478.00000000 13:34:02
    0.00000268 3358209.00000000 13:33:31
    0.00000268 3731343.00000000 13:16:41
    0.00000268 3358209.00000000 13:16:10
    0.00000268 3731343.00000000 13:15:40
    0.00000268 3731343.00000000 13:14:39
    0.00000268 2985075.00000000 13:14:08
    0.00000268 3358209.00000000 13:13:38
    0.00000268 3358209.00000000 13:13:07
    0.00000268 2985075.00000000 13:12:37
    0.00000268 4104478.00000000 13:12:06
    0.00000268 3731343.00000000 13:11:36
    0.00000268 3731343.00000000 13:11:05
    0.00000268 3358209.00000000 13:10:04
    0.00000268 2985075.00000000 13:09:33
    0.00000268 3731343.00000000 13:09:03
    0.00000268 3731343.00000000 13:08:33
    0.00000268 3731343.00000000 13:07:32
    0.00000268 3358209.00000000 13:07:02
    0.00000268 2985075.00000000 13:06:31
    0.00000270 39296272.00000000 11:50:27
    0.00000268 11997597.00000000 10:59:10
    0.00000243 135076826.00000000 17:45:39
    0.00000242 73605881.00000000 17:40:23
    0.00000280 6965.00000000 11:21:58
    0.00000280 1428570.00000000 03:19:50
    0.00000280 3571429.00000000 03:19:19
    0.00000280 2857143.00000000 03:18:49
    0.00000280 2857143.00000000 03:17:49
    0.00000292 42042077.00000000 07:24:04
    0.00000292 294294575.00000000 07:24:01
    0.00000292 294294575.00000000 07:23:53
    0.00000292 294294575.00000000 07:23:38
    0.00000292 294294575.00000000 07:23:28
    0.00000291 73979615.00000000 07:23:17
    0.00000292 220314960.00000000 07:23:17
    0.00000292 294294575.00000000 07:23:08
    0.00000292 294294575.00000000 07:23:02
    0.00000280 399607241.00000000 18:16:29
    0.00000278 711510791.00000000 18:16:29
    0.00000303 23402821.00000000 05:27:22
    0.00000333 1047854.00000000 08:39:36
    0.00000333 1048484.00000000 08:10:09
    0.00000363 85015900.00000000 08:59:31
    0.00000400 15000000.00000000 13:01:07
    0.00000422 101307596.00000000 21:08:31
    0.00000422 102759975.00000000 21:08:30
    0.00000422 102796425.00000000 21:08:28
    0.00000422 104341474.00000000 21:08:24
    0.00000422 106018137.00000000 21:08:20
    0.00000422 107626047.00000000 21:08:11
    0.00000422 109245261.00000000 21:08:04
    0.00000422 83345530.00000000 21:06:13
    0.00000422 84579698.00000000 21:06:09
    0.00000422 86464649.00000000 21:06:04
    0.00000422 86485681.00000000 21:06:02
    0.00000422 88382772.00000000 21:05:57
    Desconectar
    AAA
    Ayuda
    🙂 🤣 😎 🤗 😛 😉 😜 🤑 🤔 😑 😴 😕 🙃 😲 😇 🙁 😢 😬 😟 😠 🕺 🏃 💪 ✌ 👌 👍 👎 👏 👋 🤝 🍺 🍻 🐋 🐟 🦈 🗽 🚄 ✈ 🛑 🚀 🏦 🌚 ⭐ 🌞 ⚡ 🏆 💰 💲 🔨 ❓ ❗ 💯 🔶 🏁
    ☺
    Iniciar sesión o Registrar y chatea
    24 Horas
    Variación
    -9.65%
    Volumen
    4,713,968,803
    Máx.
    0.00000404
    Mín.
    0.00000365
    7 Días
    Variación
    +6.73%
    Volumen
    6,228,341,360
    Máx.
    0.00000450
    Mín.
    0.00000342
    30 Días
    Variación
    +22.48%
    Volumen
    7,390,468,071
    Máx.
    0.00000450
    Mín.
    0.00000272
    Pepe price rallies 25% as whale demand and futures interest surge
    Key takeaways Pepe has gained 25% this week, including a combined 22% advance over the previous two days. Seven whale transactions worth more than $1 million each occurred Thursday, the highest...
    coinjournal.net
    Aug 21, 2026 08:41
    PEPE Supply on Exchanges Just Took a Massive Hit – What’s Next?
    A drop in PEPE exchange balances has added to bullish expectations despite muted trader interest.
    cryptopotato.com
    Aug 6, 2026 20:02
    PEPE Exchange Outflows Hit Nearly 2-Year High as Whales Accumulate
    Pepe (PEPE) recorded its largest single-day exchange outflow since November 2024, with 4.54 trillion tokens leaving trading platforms, signaling that holders are moving supply away from immediate...
    beincrypto.com
    Aug 6, 2026 04:57
    Meme Coin Based on White House Shooter Conspiracy Rallies 320%
    $HENRY surged 300% after a 2023 Pepe tweet appeared to name the White House shooter, fueling a viral time-travel meme. The post Meme Coin Based on White House Shooter Conspiracy Rallies 320%...
    beincrypto.com
    Apr 27, 2026 16:11
    PEPE surges 4% as market sentiment improves, eyes Key resistance breakout
    Key takeaways Pepe extends gains on Wednesday, stretching its rally from the 50-day EMA. Derivatives data show heightened retail activity as risk-on sentiment returns to the market. Pepe (PEPE) is...
    coinjournal.net
    Apr 22, 2026 11:44
    Why The PEPE Price Could Stage A 55X Rally To Reach New $0.0001 ATH
    The PEPE price has now started to edge back into bullish conversations after the recent inflows into the crypto market. The last time PEPE’s weekly chart printed the kind of structure now...
    newsbtc.com
    Apr 21, 2026 15:30
    Pepe (PEPE) surges 9%, drawing interest from whales
    Key takeaways PEPE is up 9% in the last 24 hours, making it one of the best performers among the top 50 cryptocurrencies by market cap. The rally comes amid renewed interest from whales and retail...
    coinjournal.net
    Apr 16, 2026 07:40
    Murad Says SPX6900 (SPX) Is Primed for a Rally — Is He Right This Time?
    Crypto influencer Murad Mahmudov claims SPX6900 (SPX) is stabilizing at the same market cap level where Dogecoin (DOGE) and Pepe (PEPE) consolidated before their explosive rallies. The...
    beincrypto.com
    Apr 5, 2026 21:36
    The Shiba Inu Of This Cycle: Analyst Shares Why It Is Better To Buy PEPE Now
    In the bull market cycle of 2021-2022, the Shiba Inu meme coin made waves in a way that changed the face of meme coins forever. This came after Dogecoin’s initial 36,000% rally, and Shiba Inu...
    newsbtc.com
    Apr 4, 2026 07:30
    PEPE Explodes by 18% Amid Altcoin Rally, BTC Tapped $74K: Market Watch
    The frog-themed meme coin is today's biggest gainer, followed by TAO, DOT, and BONK.
    cryptopotato.com
    Mar 16, 2026 10:56
    Should PEPE traders brace for volatility as short squeeze potential builds?
    The memecoin market has seen its collective market capitalization drop by 48% over the past year, and 6.9% over the past month, according to CoinMarketCap. According to Glassnode, the memecoin...
    ambcrypto.com
    Mar 7, 2026 18:00
    Simplemente teclea el comando en el chat. Sustituir nick1 por el apodo real.
    • /ignore nick1 Ignorar un usuario del chat
    • /unignore nick1 Dejar de ignorar un usuario del chat
    • /ignorelist Mostrar usuarios del chat que has ignorado